Regional Weather Roundup
Issued by NWS

Home | Current Version | Previous Version | Text Only | Print | Product List | Glossary On
Versions: 1 2 3 4 5 6 7 8 9 10 11 12 13 14 15 16 17 18 19 20 21 22 23 24 25 26 27 28 29 30 31 32 33 34 35 36 37 38 39 40 41 42 43 44 45 46 47 48 49 50
000
ASUS43 KLMK 232310
RWRKY
KENTUCKY REGIONAL WEATHER ROUNDUP
NATIONAL WEATHER SERVICE LOUISVILLE KY
700 PM EDT WED JUL 23 2014

NOTE "FAIR" INDICATES FEW OR NO CLOUDS BELOW 12,000 FEET
WITH NO SIGNIFICANT WEATHER AND/OR OBSTRUCTIONS TO VISIBILITY.

KYZ001>023-026-027-061>063-070>075-240000-
WESTERN AND SOUTH CENTRAL KENTUCKY

CITY           SKY/WX    TMP DP  RH WIND       PRES   REMARKS
PADUCAH        CLOUDY    81  70  69 NW7       29.99F
HENDERSON      CLOUDY    79  70  73 NW8       29.97F
OWENSBORO      PTSUNNY   82  71  69 NW8       29.98F
HOPKINSVILLE   CLOUDY    85  70  60 N12       29.96S
BOWLING GREEN  PTSUNNY   86  72  62 NW9G21    29.94F HX  92
GLASGOW        PTSUNNY   82  69  64 NE3       29.95S THUNDER
$$

KYZ024-025-028>034-038-045-046-053-240000-
NORTH CENTRAL KENTUCKY

CITY           SKY/WX    TMP DP  RH WIND       PRES   REMARKS
LOUISVILLE/SDF PTSUNNY   86  66  51 NW9       29.94F
LOUISVILLE/LOU PTSUNNY   85  69  58 N12       29.95F
FORT KNOX      PTSUNNY   82  71  68 NW9       29.95F
$$

KYZ035>037-039>044-047>052-055>060-089>105-240000-
NORTHEAST KENTUCKY

CITY           SKY/WX    TMP DP  RH WIND       PRES   REMARKS
LEXINGTON      PTSUNNY   85  70  60 NW8       29.96F
COVINGTON      PTSUNNY   81  70  69 NE6       29.97F
FRANKFORT      MOSUNNY   84  66  54 NW8       29.95F
$$

KYZ054-064>069-076>088-106>120-240000-
SOUTHEAST KENTUCKY

CITY           SKY/WX    TMP DP  RH WIND       PRES   REMARKS
JACKSON        LGT RAIN  71  67  87 CALM      29.97F
LONDON         MOSUNNY   79  68  69 CALM      30.00S
SOMERSET       PTSUNNY   82  70  65 CALM      29.97S
MIDDLESBORO    PTSUNNY   79  70  72 W3        29.99F
MONTICELLO     PTCLDY    83  74  74 SE5       29.97F
$$




USA.gov is the U.S. government's official web portal to all federal, state and local government web resources and services.